TimeEDT,TemperatureF,Dew PointF,Humidity,Sea Level PressureIn,VisibilityMPH,Wind Direction,Wind SpeedMPH,Gust SpeedMPH,PrecipitationIn,Events,Conditions,WindDirDegrees,DateUTC
12:51 AM,45.0,30.9,58,29.87,10.0,Calm,Calm,-,N/A,,Scattered Clouds,0,2013-03-16 04:51:00
1:51 AM,44.1,32.0,63,29.83,10.0,SSW,3.5,-,N/A,,Mostly Cloudy,200,2013-03-16 05:51:00
2:51 AM,42.1,30.9,65,29.80,10.0,South,3.5,-,N/A,,Partly Cloudy,170,2013-03-16 06:51:00
3:51 AM,46.4,32.0,57,29.76,10.0,SSW,6.9,-,N/A,,Overcast,200,2013-03-16 07:51:00
4:51 AM,48.0,37.9,68,29.73,8.0,SW,8.1,-,0.01,Rain,Light Rain,230,2013-03-16 08:51:00
5:51 AM,45.0,41.0,86,29.74,10.0,SW,8.1,-,0.06,,Overcast,220,2013-03-16 09:51:00
6:51 AM,42.1,39.9,92,29.76,7.0,SE,3.5,-,0.01,,Overcast,130,2013-03-16 10:51:00
7:51 AM,48.0,42.1,80,29.76,10.0,WSW,6.9,-,0.00,,Partly Cloudy,240,2013-03-16 11:51:00
8:51 AM,51.1,43.0,74,29.75,10.0,WSW,8.1,-,0.03,,Partly Cloudy,240,2013-03-16 12:51:00
9:51 AM,55.0,44.1,67,29.74,10.0,WSW,6.9,17.3,N/A,,Clear,240,2013-03-16 13:51:00
10:51 AM,59.0,45.0,60,29.71,10.0,WSW,10.4,23.0,N/A,,Scattered Clouds,250,2013-03-16 14:51:00
11:51 AM,62.1,44.1,52,29.69,10.0,West,11.5,25.3,N/A,,Partly Cloudy,270,2013-03-16 15:51:00
12:51 PM,64.0,44.1,48,29.68,10.0,WSW,17.3,25.3,N/A,,Scattered Clouds,240,2013-03-16 16:51:00
1:51 PM,66.9,44.1,44,29.66,10.0,West,15.0,24.2,N/A,,Partly Cloudy,260,2013-03-16 17:51:00
2:51 PM,68.0,43.0,40,29.65,10.0,West,15.0,29.9,N/A,,Scattered Clouds,260,2013-03-16 18:51:00
3:51 PM,66.0,43.0,43,29.63,10.0,West,18.4,26.5,N/A,,Overcast,270,2013-03-16 19:51:00
4:51 PM,61.0,46.9,60,29.69,10.0,WNW,17.3,24.2,0.01,,Mostly Cloudy,290,2013-03-16 20:51:00
5:51 PM,62.1,46.0,56,29.71,10.0,West,18.4,24.2,N/A,,Mostly Cloudy,280,2013-03-16 21:51:00
6:51 PM,62.1,44.1,52,29.73,10.0,West,15.0,25.3,N/A,,Partly Cloudy,270,2013-03-16 22:51:00
7:51 PM,61.0,43.0,52,29.76,10.0,NW,12.7,-,N/A,,Overcast,310,2013-03-16 23:51:00
8:09 PM,55.4,46.4,72,29.81,10.0,NNW,19.6,25.3,N/A,,Overcast,340,2013-03-17 00:09:00
8:51 PM,54.0,46.9,77,29.82,10.0,NNW,9.2,-,N/A,,Partly Cloudy,330,2013-03-17 00:51:00
9:46 PM,53.6,46.4,77,29.87,10.0,NNW,10.4,-,N/A,,Mostly Cloudy,330,2013-03-17 01:46:00
9:51 PM,53.1,46.0,77,29.84,10.0,NNW,13.8,-,N/A,,Mostly Cloudy,340,2013-03-17 01:51:00
10:15 PM,51.8,44.6,76,29.87,10.0,NNW,13.8,-,N/A,,Mostly Cloudy,340,2013-03-17 02:15:00
10:25 PM,51.8,44.6,76,29.88,10.0,NNW,11.5,-,N/A,,Mostly Cloudy,340,2013-03-17 02:25:00
10:51 PM,50.0,44.1,80,29.85,9.0,North,8.1,-,N/A,,Overcast,10,2013-03-17 02:51:00
11:51 PM,48.0,42.1,80,29.88,9.0,North,10.4,-,N/A,,Overcast,10,2013-03-17 03:51:00